www.pogodaiklimat.ru

Погода и климат >> Архив погоды >> Россия >> Якутия >> Иэма


ПОГОДА в Иэме

  • Прогноз погоды в Иэме
  • Монитор погоды в Иэме
  • Климат города

АРХИВ ПОГОДЫ в Иэме

Время (UTC), дата Ветер
(напр.,м/с)
 
Видим.   Явления Облачность Т
(С)
Тd
(С)
f
(%)
Тe
(С)
Тes
(С)
Комфортность P
(гПа)
Po
(гПа)
Тmin
(С)
Tmax
(С)
R
(мм)
R24
(мм)
S
(см)
00 16.07 С 1 50 км 10/0
[Ac As]
+8.4 +5.8 84 +8 +11 1012.6 933.8
03 16.07 С 1 50 км 10/0
[Ac As]
+10.8 +5.6 70 +11 +15 1011.0 932.9
06 16.07 СЗ 2 50 км 10/0
[Ac As]
+12.8 +9.0 78 +12 +14 1009.4 932.0
09 16.07 СЗ 3 50 км 10/0
[Ac As]
+11.9 +6.9 71 +10 +11 1009.7 932.1 +12.8
12 16.07 СЗ 2 50 км 10/0
[Ac As]
+9.6 +7.9 89 +8 +8 1010.4 932.1
15 16.07 С 1 50 км 10/0
[Ac As]
+8.0 +6.9 93 +7 +7 1010.1 931.4
18 16.07 СЗ 2 50 км 10/0
[Ac As]
+7.5 +6.6 94 +5 +5 1009.0 930.3
21 16.07 СЗ 3 50 км 10/0
[Ac As]
+7.2 +6.5 95 +4 +5 1008.1 929.4 +6.2
00 17.07 СЗ 2 20 км слабая морось 10/10 1000 м
[St]
+7.4 +7.0 97 +5 +5 1007.2 928.5
03 17.07 СЗ 1 50 км {морось} 10/0
[Ac As]
+9.5 +8.3 92 +9 +13 1005.6 927.6
06 17.07 СЗ 2 50 км {морось} 10/0
[Ac As]
+10.6 +7.4 81 +9 +12 1004.7 927.1
09 17.07 СЗ 2 50 км 10/0
[Ac As]
+11.4 +9.0 85 +10 +11 1004.5 927.2 +11.4 0.0
12 17.07 С 3 50 км 10/0
[Ac As]
+10.4 +8.8 90 +8 +8 1005.0 927.4
15 17.07 СЗ 2 50 км 10/0
[Ac As]
+9.1 +8.5 96 +7 +7 1005.0 927.0
18 17.07 С 1 50 км 6/0
[Ac As]
+6.2 +5.8 97 +5 +5 1005.5 926.6
21 17.07 С 4 50 км 6/0
[Ac As]
+9.7 +6.5 80 +7 +8 1003.8 926.0 +2.8
00 18.07 СЗ 4 50 км 8/0
[Ac trans]
+12.8 +2.9 51 +11 +14 1001.4 924.5
03 18.07 СЗ 4 50 км 10/0
[Ac As]
+13.3 +3.0 50 +12 +14 1000.7 924.1
06 18.07 З 2 50 км 8/0
[Ac trans]
+14.6 +3.1 46 +14 +19 999.4 923.2
09 18.07 С 3 50 км 6/0
[Ac trans]
+16.8 +1.9 37 +17 +18 998.7 923.0 +16.8
12 18.07 СЗ 4 50 км 4/0
[Ac trans]
+12.2 +4.3 58 +10 +10 1000.7 923.7
15 18.07 СЗ 1 50 км 3/0
[Ci fib]
+3.1 +0.7 84 +2 +2 1003.6 923.9
18 18.07 штиль 0 50 км 4/0
[Ci fib]
+0.1 -0.2 98 -1 -1 1004.5 923.9
21 18.07 штиль 0 50 км 4/0
[Ci fib]
+6.4 +3.1 79 +6 +8 1004.6 924.0 0.0
00 19.07 ЮЗ 2 50 км 3/0
[Ci fib]
+13.2 +5.8 61 +13 +20 999.6 923.0
03 19.07 ЮЗ 2 50 км 3/0
[Ci fib]
+17.3 +5.0 44 +18 +28 997.1 921.7
06 19.07 СЗ 3 50 км 6/0
[Ac trans]
+19.3 +4.0 36 +20 +24 996.0 921.2
09 19.07 С 2 50 км 6/0
[Ac trans]
+17.5 +5.9 46 +18 +19 996.0 921.7 +19.6
12 19.07 С 2 50 км 3/0
[Ci fib]
+14.1 +6.4 60 +14 +14 998.8 922.5
15 19.07 СЗ 3 50 км 3/0
[Ci fib]
+1.0 +0.2 94 -4 -4 1004.4 924.1
18 19.07 СЗ 3 50 км 3/0
[Ci fib]
+1.0 +0.2 94 -4 -4 1004.4 924.1
21 19.07 штиль 0 50 км 6/0
[Ac trans]
+7.8 +4.4 79 +7 +9 1003.0 924.7 +1.0
00 20.07 ЮЗ 1 50 км 4/0
[Cs]
+14.4 +3.4 48 +15 +24 1000.7 924.3
03 20.07 СЗ 1 50 км 4/0
[Cs]
+18.4 +0.5 30 +20 +32 999.3 924.0
06 20.07 С 4 50 км 6/0
[Ac trans]
+18.6 +0.2 29 +19 +22 999.4 924.1
09 20.07 СВ 4 50 км 4/0
[Ac trans]
+18.2 -0.9 27 +18 +19 1000.4 924.9 +19.1
12 20.07 СЗ 4 50 км 8/0
[Ac trans]
+11.0 +2.4 55 +9 +9 1004.4 926.8
15 20.07 СЗ 5 50 км 9/0
[Ac trans]
+6.2 +1.7 73 +2 +2 1008.1 928.9
18 20.07 СЗ 3 50 км 10/0
[Ac As]
+4.0 -0.3 74 +1 +1 1010.1 930.2
21 20.07 З 4 50 км 10/0
[Ac As]
+4.0 +1.4 83 -0 0 1010.8 930.8 +2.5
00 21.07 З 5 50 км 10/0
[Ac As]
+6.1 +3.0 80 +2 +3 1010.2 930.9
03 21.07 СЗ 5 50 км 10/0
[Ac As]
+8.8 +4.5 74 +5 +7 1009.7 931.2
06 21.07 СЗ 5 50 км 10/0
[Ac As]
+7.2 +5.4 88 +3 +4 1010.8 931.7
09 21.07 З 5 50 км 10/0
[Ac As]
+6.9 +5.3 90 +3 +3 1011.1 932.0 +8.8
12 21.07 З 4 50 км 10/0
[Ac As]
+5.7 +4.8 94 +2 +2 1011.6 932.1
15 21.07 З 4 20 км слабый дождь 10/0
[As op]
+3.6 +3.1 97 -1 -1 1012.0 931.9
18 21.07 З 3 20 км слабый дождь 10/0
[As op]
+2.8 +2.5 98 -2 -2 1011.5 931.2
21 21.07 СЗ 2 50 км {дождь} 9/0
[Ac trans]
+3.7 +1.7 87 +1 +2 1011.0 931.0 +2.1 0.4
00 22.07 штиль 0 50 км {дождь} 10/0
[Ac As]
+5.4 +3.2 86 +4 +8 1010.0 930.5
03 22.07 Ю 1 50 км 9/0
[Ac trans]
+9.2 +5.2 76 +9 +15 1007.5 929.3
06 22.07 З 1 50 км 8/0
[Ac trans]
+13.6 +0.3 40 +14 +19 1005.2 928.2
09 22.07 СЗ 5 50 км 8/0
[Ac trans]
+11.1 +3.4 59 +9 +9 1006.4 928.4 +13.6
12 22.07 СЗ 4 50 км 8/0
[Ac trans]
+9.7 +4.3 69 +7 +7 1006.0 928.0
15 22.07 штиль 0 50 км 10/0
[Ac As]
+4.3 +2.8 90 +3 +3 1006.9 927.4
18 22.07 СВ 2 50 км 8/0
[Ac trans]
+2.4 +1.6 94 -1 -1 1006.7 926.6
21 22.07 штиль 0 50 км 3/0
[Ac trans]
+8.0 +4.6 79 +7 +10 1004.4 926.1 +2.0

 

Местоположение метеостанции Иэма (Якутия, Россия): широта 65.30 долгота 135.80 высота над уровнем моря 675 м.

В архиве по умолчанию представлена погода в Иэме за последнюю неделю. Архивные данные за месяц целиком и за предыдущие месяцы, начиная с января 2011 года, Вы можете получить, выбрав интересующий диапазон дат из раскрывающегося списка и нажав кнопку "Ввод!".

Внимание! Время в таблицах - всемирное. Для получения местного времени необходимо прибавить поправку, которая в Иэме равна 9 ч.

Смотрите также архив погоды в соседних городах и на ближайших метеорологических станциях:

Погода в Томпо (Якутия, Россия) (150 км)
Погода в Усть-Чарках (Якутия, Россия) (171 км)
Погода в Екюччю (Якутия, Россия) (250 км)
Погода в Батагае (Якутия, Россия) (267 км)
Погода в Себян-Кюеле (Якутия, Россия) (269 км)
Погода в Верхоянске (Якутия, Россия) (274 км)
Погода в Крест-Хальджае (Якутия, Россия) (284 км)
Погода в Теплом Ключе (Якутия, Россия) (284 км)
Погода в Верхоянском Перевозе (Якутия, Россия) (286 км)
Погода в Восточной (Якутия, Россия) (294 км)

Пояснения к столбцам:

Ветер - указаны скорость ветра в м/с - средняя за 10 мин, порывы в срок и между сроками (в фигурных скобках) и направление, откуда дует ветер: С - северный, СВ - северо-восточный, В - восточный, ЮВ - юго-восточный, Ю - южный, ЮЗ - юго-западный, З - западный, СЗ - северо-западный.
Видимость - горизонтальная дальность видимости в метрах или километрах. При видимости от 1 до 10 км при отсутствии осадков обычно наблюдается дымка, при ухудшении видимости до 1 км и менее - туман. В сухую погоду видимость может ухудшаться дымом, пылью или мглою.
Явления - указаны атмосферные явления, наблюдавшиеся в срок или в последний час перед сроком; фигурными скобками обозначены явления, наблюдавшиеся между сроками (за 1-3 часа до срока); квадратными скобками обозначены град или гололедные отложения с указанием их диаметра в мм.
Облачность - указаны через наклонную черту общая и нижняя облачность в баллах и высота нижней границы облаков в метрах; квадратными скобками обозначены формы облаков: Ci - перистые, Cs - перисто-слоистые, Cc - перисто-кучевые, Ac - высококучевые, As - высокослоистые, Sc - слоисто-кучевые, Ns - слоисто-дождевые, Cu - кучевые, Cb - кучево-дождевые. Подробнее классификацию облаков см. в Атласе облаков (PDF).
T - Температура воздуха - температура, измеренная на высоте 2 м над землей.
Td - Температура точки росы - температура, при понижении до которой содержащийся в воздухе водяной пар достигнет насыщения.
f - Относительная влажность воздуха - влажноcть воздуха, измеренная на высоте 2 м над землей.
Te - Эффективная температура - температура, которую ощущает одетый по сезону человек в тени. Характеристика душности погоды. При расчете учитывается влияние влажности воздуха и скорости ветра на теплоощущения человека.
Tes - Эффективная температура на солнце - температура, которую ощущает человек, с поправкой на солнечный нагрев. Характеристика знойности погоды. Зависит от высоты солнца над горизонтом, облачности и скорости ветра. Ночью, в пасмурную погоду, а также при ветре 12 м/с и более поправка равна нулю.
P - Атмосферное давление - приведенное к уровню моря атмосферное давление.
Po - Атмосферное давление - измеренное на уровне метеостанции атмосферное давление.
Tmin - Минимальная температура - минимум температуры воздуха на высоте 2 м над землей.
Tmax - Максимальная температура - максимум температуры воздуха на высоте 2 м над землей.
R - Количество осадков - Количество выпавших осадков за период времени, мм. При наведении курсора мыши на число - период времени, за который выпало указанное количество осадков.
R24 - Количество осадков - Количество выпавших осадков за 24 часа, мм.
S - Снежный покров - Высота снежного покрова, см. При наведении курсора мыши на число - состояние снежного покрова и степень покрытия местности в баллах.